[[{"header":{"parameterUnit":"m.s-1","parameterCategory":2,"la1":30.2991,"la2":30.254,"lo1":-89.0895,"lo2":-89.0444,"dy":0.0017,"dx":0.0017,"nx":28,"ny":28,"refTime":"2024-05-27T03:00:00:Z","depth":"0","parameterNumber":2,"parameterNumberName":"U-component_of_CURRENTS"},"data":[0,0,0,0,0,0,0,0,0,0,0,0,0,0,0,0,0,0,0,0,0,0,0,0,0,0,0,0,0,0,0,0,0,0,0,0,0,0,0,0,0,0,0,0,0,0,0,0,0,0,0,0,0,0,0,0,0,0,0.2226,0.2226,0,0.2251,0.2252,0.2252,0.226,0.226,0.2259,0.2259,0.2315,0.2316,0.2318,0,0,0,0,0,0,0,0,0,0,0,0,0,0.2232,0.2231,0.2226,0.2226,0.2226,0.2251,0.2252,0.2252,0.226,0.226,0.2259,0.2259,0.2314,0.2316,0.2318,0,0,0,0,0,0,0,0,0,0,0,0,0,0.224,0.2231,0.2226,0.2233,0.2234,0.2251,0.2252,0.2252,0.226,0.226,0.2259,0.2259,0.2313,0.2316,0.2318,0.2337,0,0,0.2325,0.2326,0,0,0,0,0,0,0,0,0.224,0.224,0.2232,0.2233,0.2234,0.2252,0.2274,0.2282,0.226,0.225,0.2259,0.2259,0.2296,0.23,0.2305,0.234,0.2342,0.2326,0.2327,0.2328,0.2329,0,0,0,0,0,0,0,0.2239,0.2239,0.2236,0.2232,0.2233,0.2252,0.2252,0.2276,0.2275,0.2251,0.2252,0.2254,0.2297,0.2303,0.2307,0.2343,0.2326,0.2328,0.2329,0.233,0.2488,0.2491,0,0,0,0,0,0,0.2233,0.2238,0.2235,0.2237,0.2236,0.2251,0.2252,0.2246,0.2274,0.2278,0.2254,0.2254,0.2299,0.2304,0.2309,0.239,0.2328,0.233,0.2332,0.2486,0.2489,0.2492,0,0,0,0,0,0,0.2233,0.2232,0.2234,0.2239,0.224,0.2251,0.2245,0.2247,0.2254,0.2276,0.228,0.2259,0.2299,0.2305,0.234,0.239,0.2331,0.2334,0.2482,0.2487,0.249,0.2516,0,0,0,0,0,0,0.2233,0.2232,0.2229,0.2238,0.224,0.225,0.2245,0.2248,0.2256,0.2256,0.2282,0.2287,0.2299,0.2336,0.2342,0.2392,0.2336,0.2479,0.2484,0.2489,0.2512,0.2521,0.2528,0,0,0,0,0,0.2233,0.2231,0.2228,0.2228,0.2233,0.225,0.2253,0.2261,0.2256,0.2265,0.2284,0.2286,0.2375,0.2339,0.2346,0.2398,0.2476,0.2483,0.2489,0.2508,0.2519,0.2528,0,0,0,0,0,0,0.2236,0.2232,0.2229,0.2226,0.2239,0.2252,0.2261,0.2262,0.2283,0.2286,0.23,0.2307,0.2372,0.2378,0.2339,0.2465,0.2435,0.2443,0.2448,0.2458,0.2466,0.2466,0.2338,0,0,0,0,0,0.2233,0.2228,0.2234,0.2234,0.224,0.2249,0.2257,0.2263,0.228,0.2288,0.2305,0.2343,0.2404,0.242,0.2467,0.2509,0.2519,0.2558,0.2566,0.2573,0.2582,0.2661,0.2677,0.2512,0.2512,0.2512,0,0,0.2233,0.2232,0.2228,0.2234,0.2244,0.2259,0.2254,0.2269,0.2289,0.2293,0.2325,0.2371,0.2425,0.2492,0.2522,0.2497,0.2617,0.2581,0.2585,0.2591,0.2669,0.2685,0.2699,0.2516,0.2516,0.2515,0,0,0.2235,0.2232,0.223,0.2242,0.2257,0.2269,0.2273,0.2288,0.2303,0.2332,0.2372,0.2439,0.2484,0.2553,0.2591,0.2671,0.2667,0.2695,0.2722,0.2799,0.2813,0.2825,0.2811,0.2822,0.2688,0.2688,0.2688,0,0.2239,0.2232,0.2236,0.2245,0.2258,0.2273,0.2286,0.231,0.2335,0.2362,0.2346,0.2485,0.2522,0.2645,0.2679,0.2691,0.27,0.2672,0.2807,0.282,0.2832,0.2815,0.2827,0.269,0.2689,0.2689,0.2689,0,0.224,0.2241,0.2247,0.226,0.2279,0.2294,0.2325,0.2352,0.2365,0.2392,0.2495,0.2556,0.2638,0.268,0.2698,0.2828,0.2792,0.2813,0.2772,0.2849,0.2827,0.2839,0.2693,0.2692,0.2691,0.2691,0,0,0.2234,0.2243,0.2245,0.2253,0.2287,0.2302,0.235,0.2401,0.2444,0.2487,0.2557,0.2676,0.2711,0.276,0.2817,0.2885,0.2963,0.288,0.2883,0.2846,0.3071,0.2947,0.2947,0.3008,0.3012,0.3014,0.3002,0,0.2235,0.2242,0.2255,0.228,0.2289,0.2329,0.2374,0.2428,0.2475,0.2547,0.2642,0.2727,0.2743,0.2795,0.2873,0.2961,0.3003,0.296,0.3019,0.3019,0.2887,0.2962,0.2835,0.2807,0.3013,0.3015,0.3016,0,0.2231,0.2237,0.2249,0.2287,0.2298,0.2324,0.2405,0.2448,0.256,0.26,0.2702,0.2764,0.2893,0.289,0.3038,0.3008,0.304,0.3084,0.3085,0.2974,0.2921,0.2776,0.282,0.2757,0.3034,0.3032,0.3031,0,0.2213,0.2237,0.2244,0.2255,0.2303,0.2332,0.2371,0.2466,0.2519,0.2642,0.2694,0.2832,0.2907,0.2999,0.3063,0.3064,0.3194,0.3203,0.311,0.3098,0.3004,0.2977,0.2981,0.3304,0.3304,0.3304,0.3304,0,0.2204,0.2212,0.2235,0.2238,0.2273,0.2317,0.2379,0.2441,0.2548,0.2624,0.2722,0.2809,0.2947,0.3027,0.3078,0.3107,0.3197,0.3122,0.3111,0.3002,0.2977,0.2928,0.2903,0.3303,0.3303,0.3303,0.3304,0,0.2181,0.219,0.2204,0.2245,0.226,0.2288,0.2365,0.2417,0.2514,0.2621,0.2661,0.2806,0.2903,0.2989,0.3124,0.3103,0.3058,0.3141,0.2949,0.2915,0.2747,0.2727,0.2596,0.2531,0.3033,0.3031,0.3028,0,0.2167,0.2168,0.2198,0.2206,0.2222,0.2265,0.23,0.2393,0.245,0.2615,0.2666,0.2789,0.287,0.2967,0.2977,0.2998,0.2961,0.2853,0.285,0.2722,0.2695,0.2592,0.2542,0.2715,0.271,0.2707,0.2704,0,0.2149,0.2158,0.2166,0.2179,0.2203,0.2234,0.2288,0.2325,0.2444,0.2524,0.2641,0.2719,0.2812,0.2789,0.2782,0.2785,0.2691,0.277,0.2736,0.2522,0.232,0.2254,0.2678,0.2669,0.2673,0.2675,0.2677,0.2678,0.2138,0.2135,0.2141,0.2146,0.2166,0.2185,0.2182,0.2249,0.2311,0.2398,0.254,0.2592,0.2617,0.2609,0.2578,0.2424,0.2462,0.2352,0.2355,0.2274,0.2165,0.2456,0.238,0.2381,0.2383,0.2384,0.2385,0,0.2111,0.2102,0.2108,0.2097,0.2081,0.2119,0.2153,0.2133,0.2149,0.2265,0.2337,0.2348,0.2288,0.2284,0.2158,0.2039,0.1969,0.1974,0.1853,0.1843,0.2196,0.214,0.1891,0.1891,0.1891,0.1891,0.1891,0.1891,0.2097,0.2071,0.2058,0.2002,0.1992,0.1943,0.1937,0.1925,0.1967,0.197,0.1974,0.2026,0.2063,0.1971,0.1818,0.1766,0.1658,0.1525,0.1571,0.1875,0.1912,0.1948,0.1892,0.1595,0.1595,0.1141,0.1137,0.1135]},{"header":{"parameterUnit":"m.s-1","parameterCategory":2,"la1":30.2991,"la2":30.254,"lo1":-89.0895,"lo2":-89.0444,"dy":0.0017,"dx":0.0017,"nx":28,"ny":28,"refTime":"2024-05-27T03:00:00:Z","depth":"0","parameterNumber":3,"parameterNumberName":"V-component_of_CURRENTS"},"data":[0,0,0,0,0,0,0,0,0,0,0,0,0,0,0,0,0,0,0,0,0,0,0,0,0,0,0,0,0,0,0,0,0,0,0,0,0,0,0,0,0,0,0,0,0,0,0,0,0,0,0,0,0,0,0,0,0,0,0.0242,0.0242,0,0.0209,0.0208,0.0208,0.0179,0.0179,0.0179,0.0179,0.0104,0.0102,0.0101,0,0,0,0,0,0,0,0,0,0,0,0,0,0.0244,0.0244,0.0242,0.0242,0.0242,0.0209,0.0208,0.0208,0.0179,0.0179,0.0179,0.0178,0.0105,0.0103,0.0101,0,0,0,0,0,0,0,0,0,0,0,0,0,0.0229,0.0245,0.0242,0.0224,0.0223,0.0209,0.0208,0.0207,0.0179,0.0179,0.0179,0.0178,0.0106,0.0103,0.01,0.0089,0,0,0.0092,0.0091,0,0,0,0,0,0,0,0,0.023,0.0229,0.0227,0.0226,0.0224,0.0199,0.0182,0.0166,0.0179,0.0194,0.0179,0.0178,0.0133,0.0128,0.0121,0.0086,0.0083,0.0092,0.009,0.0089,0.0088,0,0,0,0,0,0,0,0.0231,0.023,0.0228,0.0227,0.0225,0.0205,0.0203,0.0179,0.0164,0.0193,0.0191,0.019,0.0132,0.0124,0.0119,0.0082,0.0092,0.0089,0.0088,0.0087,0.0018,0.0018,0,0,0,0,0,0,0.024,0.0231,0.0229,0.0227,0.0228,0.0206,0.0203,0.0206,0.0165,0.0159,0.019,0.0188,0.0129,0.0122,0.0116,0.0108,0.0089,0.0086,0.0085,0.0018,0.0018,0.0018,0,0,0,0,0,0,0.0241,0.0241,0.023,0.0229,0.0226,0.0207,0.021,0.0206,0.02,0.0164,0.0157,0.0189,0.0128,0.012,0.0097,0.0104,0.0085,0.0083,0.0019,0.0018,0.0018,0.0085,0,0,0,0,0,0,0.0241,0.0241,0.0246,0.023,0.0227,0.0227,0.021,0.0205,0.02,0.0198,0.016,0.0153,0.0127,0.0102,0.0095,0.01,0.0081,0.0019,0.0018,0.0018,0.0083,0.0087,0.0091,0,0,0,0,0,0.0241,0.025,0.0246,0.0246,0.0234,0.0228,0.0224,0.0208,0.02,0.0201,0.0175,0.0154,0.0094,0.01,0.0091,0.0096,0.0019,0.0019,0.0018,0.0082,0.0087,0.0091,0,0,0,0,0,0,0.0251,0.0248,0.0243,0.025,0.0242,0.0223,0.0224,0.0213,0.0193,0.0191,0.0155,0.0146,0.0127,0.0099,0.0106,0.0073,0.0052,0.005,0.0103,0.0107,0.0111,0.0132,0.0078,0,0,0,0,0,0.0257,0.0265,0.0255,0.0261,0.0259,0.0243,0.0238,0.0229,0.021,0.0202,0.0176,0.0145,0.0118,0.0104,0.0075,0.0061,0.0051,0.0055,0.0059,0.0063,0.0073,0.0063,0.0068,0.0016,0.0016,0.0016,0,0,0.0262,0.0262,0.0265,0.0264,0.0256,0.0262,0.0239,0.0238,0.0241,0.0196,0.0191,0.0158,0.0116,0.0099,0.0088,0.0079,0.0073,0.0062,0.0066,0.0074,0.0064,0.0069,0.0074,0.0016,0.0016,0.0016,0,0,0.0279,0.0277,0.029,0.0288,0.0285,0.0277,0.028,0.0265,0.0258,0.0248,0.0215,0.019,0.015,0.0125,0.0106,0.0111,0.0092,0.0096,0.0136,0.0127,0.0132,0.0136,0.0141,0.0145,0.01,0.01,0.01,0,0.0283,0.0302,0.0292,0.0304,0.0309,0.0288,0.0304,0.0294,0.0273,0.0271,0.0254,0.0202,0.0164,0.0148,0.0147,0.0122,0.0119,0.0127,0.0135,0.0138,0.0142,0.0146,0.0149,0.0103,0.0103,0.0102,0.0102,0,0.0311,0.0325,0.0333,0.0346,0.0348,0.0358,0.0348,0.0347,0.0335,0.0323,0.0306,0.0257,0.023,0.0208,0.0179,0.0178,0.017,0.0143,0.0132,0.0151,0.0154,0.0156,0.0108,0.0106,0.0105,0.0105,0,0,0.0327,0.0349,0.0353,0.0371,0.0374,0.0382,0.0391,0.0395,0.0409,0.0377,0.039,0.0334,0.0311,0.0287,0.0245,0.0232,0.0248,0.0203,0.0201,0.0223,0.0245,0.0236,0.0238,0.0226,0.0227,0.0227,0.0243,0,0.0353,0.0391,0.0393,0.043,0.045,0.0441,0.0456,0.0455,0.0447,0.0452,0.0405,0.0395,0.034,0.0331,0.031,0.0261,0.0256,0.0247,0.0209,0.0208,0.021,0.024,0.0279,0.0296,0.0245,0.0246,0.0246,0,0.0383,0.0407,0.045,0.0485,0.0494,0.0512,0.054,0.0549,0.0545,0.0538,0.0518,0.0484,0.0457,0.0408,0.0354,0.0353,0.031,0.0271,0.0271,0.0242,0.0204,0.0263,0.0302,0.0238,0.025,0.0249,0.0249,0,0.0411,0.045,0.049,0.05,0.0532,0.0554,0.0571,0.0578,0.0602,0.0598,0.0616,0.0567,0.0557,0.0494,0.0409,0.0388,0.0356,0.0315,0.027,0.0269,0.0284,0.0283,0.0269,0.0288,0.0288,0.0288,0.0288,0,0.0444,0.0475,0.051,0.0532,0.0589,0.0594,0.065,0.0655,0.0679,0.0729,0.0668,0.0698,0.0578,0.0541,0.0453,0.038,0.0393,0.0292,0.0275,0.0307,0.0309,0.0236,0.0192,0.0289,0.0289,0.0289,0.0289,0,0.047,0.0489,0.054,0.0584,0.0606,0.0647,0.0712,0.0751,0.0763,0.0829,0.0837,0.0804,0.0761,0.0643,0.0545,0.0447,0.034,0.0336,0.0388,0.0376,0.026,0.0219,0.0192,0.0169,0.0295,0.0295,0.0295,0,0.0487,0.0516,0.0583,0.0624,0.065,0.0712,0.0762,0.0793,0.0847,0.0909,0.0954,0.0926,0.0935,0.078,0.0606,0.0464,0.0373,0.038,0.0334,0.0275,0.0216,0.0188,0.0168,0.0387,0.0388,0.0388,0.0389,0,0.0521,0.0545,0.059,0.0677,0.0739,0.0814,0.0891,0.095,0.1007,0.1078,0.1166,0.1179,0.1035,0.0911,0.0684,0.0567,0.0354,0.0386,0.0314,0.0285,0.0265,0.0229,0.0359,0.0394,0.0393,0.0393,0.0393,0.0393,0.0549,0.0589,0.0654,0.0738,0.0813,0.0917,0.0993,0.1091,0.1209,0.133,0.1332,0.1392,0.1178,0.0885,0.0707,0.0412,0.04,0.0325,0.0282,0.026,0.0232,0.0377,0.0388,0.0388,0.0387,0.0387,0.0387,0,0.0587,0.0637,0.0714,0.0817,0.0907,0.0944,0.1082,0.1174,0.1337,0.1456,0.1544,0.1505,0.1259,0.096,0.0569,0.0359,0.0273,0.024,0.0214,0.0199,0.0329,0.0324,0.0336,0.0336,0.0336,0.0336,0.0336,0.0336,0.0608,0.0686,0.0728,0.0881,0.0959,0.1093,0.1182,0.1329,0.1449,0.1623,0.1691,0.171,0.1507,0.0819,0.0385,0.0272,0.0134,0.0105,0.0026,0.0114,0.0118,0.0123,0.0109,0.0075,0.0074,-0.006,-0.0062,-0.0063]}],[{"header":{"parameterUnit":"m.s-1","parameterCategory":2,"la1":30.2991,"la2":30.254,"lo1":-89.0895,"lo2":-89.0444,"dy":0.0017,"dx":0.0017,"nx":28,"ny":28,"refTime":"2024-05-27T03:00:00:Z","depth":"2","parameterNumber":2,"parameterNumberName":"U-component_of_CURRENTS"},"data":[0,0,0,0,0,0,0,0,0,0,0,0,0,0,0,0,0,0,0,0,0,0,0,0,0,0,0,0,0,0,0,0,0,0,0,0,0,0,0,0,0,0,0,0,0,0,0,0,0,0,0,0,0,0,0,0,0,0,0.1943,0.1943,0,0.1951,0.1951,0.1951,0.1952,0.1952,0.1952,0.1952,0.1968,0.1968,0.1968,0,0,0,0,0,0,0,0,0,0,0,0,0,0.1945,0.1945,0.1943,0.1943,0.1943,0.1951,0.1951,0.1951,0.1952,0.1952,0.1952,0.1952,0.1967,0.1968,0.1969,0,0,0,0,0,0,0,0,0,0,0,0,0,0.1947,0.1945,0.1943,0.1945,0.1945,0.1951,0.1951,0.1951,0.1952,0.1952,0.1952,0.1952,0.1967,0.1968,0.1969,0.1974,0,0,0.1971,0.1971,0,0,0,0,0,0,0,0,0.1947,0.1947,0.1944,0.1945,0.1945,0.1951,0.1958,0.196,0.1952,0.1948,0.1952,0.1951,0.1963,0.1964,0.1965,0.1975,0.1976,0.1971,0.1971,0.1972,0.1972,0,0,0,0,0,0,0,0.1947,0.1947,0.1945,0.1944,0.1945,0.1952,0.1952,0.1958,0.1956,0.1949,0.1949,0.1951,0.1963,0.1964,0.1965,0.1976,0.1971,0.1971,0.1972,0.1972,0.2071,0.2073,0,0,0,0,0,0,0.1946,0.1947,0.1945,0.1946,0.1947,0.1952,0.1951,0.1948,0.1955,0.1957,0.1951,0.1951,0.1963,0.1964,0.1966,0.2021,0.1972,0.1972,0.1973,0.2069,0.2072,0.2074,0,0,0,0,0,0,0.1946,0.1946,0.1945,0.1947,0.1948,0.1951,0.1948,0.1949,0.1956,0.1957,0.1958,0.1959,0.1963,0.1965,0.1986,0.202,0.1972,0.1973,0.2066,0.207,0.2073,0.2101,0,0,0,0,0,0,0.1946,0.1946,0.1947,0.1947,0.1947,0.1958,0.1948,0.1949,0.1958,0.1958,0.1965,0.1965,0.1963,0.1985,0.1986,0.202,0.1974,0.2064,0.2068,0.2072,0.2097,0.2105,0.2111,0,0,0,0,0,0.1946,0.1949,0.1947,0.1947,0.1948,0.1959,0.196,0.1962,0.1958,0.1967,0.1974,0.1966,0.2013,0.1986,0.1988,0.2023,0.2062,0.2067,0.2072,0.2094,0.2103,0.2111,0,0,0,0,0,0,0.1952,0.1949,0.1947,0.1948,0.1957,0.1959,0.1968,0.1967,0.1979,0.1981,0.1978,0.198,0.2019,0.2019,0.199,0.2069,0.2043,0.2048,0.2059,0.2068,0.2075,0.209,0.1974,0,0,0,0,0,0.1953,0.1953,0.1956,0.1959,0.1964,0.1967,0.1973,0.1975,0.1983,0.1988,0.1991,0.201,0.2041,0.205,0.2072,0.21,0.2107,0.2132,0.2139,0.2144,0.2162,0.2223,0.2237,0.2091,0.2091,0.209,0,0,0.1954,0.1955,0.1954,0.1961,0.1967,0.1978,0.1971,0.1985,0.1999,0.1989,0.201,0.2031,0.2056,0.2096,0.2114,0.2098,0.2181,0.2151,0.2155,0.217,0.223,0.2244,0.2256,0.2094,0.2093,0.2093,0,0,0.1959,0.1961,0.1964,0.1974,0.1987,0.1993,0.1999,0.2007,0.2018,0.2038,0.2051,0.2091,0.2112,0.2148,0.2167,0.2228,0.2219,0.2241,0.2282,0.2341,0.2353,0.2364,0.2346,0.2355,0.2241,0.2241,0.2241,0,0.1964,0.1963,0.1969,0.1979,0.1989,0.2001,0.2012,0.2028,0.2043,0.2061,0.205,0.2126,0.2143,0.2214,0.2246,0.2243,0.2253,0.224,0.2349,0.236,0.2371,0.235,0.236,0.2243,0.2243,0.2243,0.2243,0,0.1968,0.1974,0.1981,0.1995,0.201,0.2024,0.2046,0.2068,0.2079,0.2095,0.2159,0.2189,0.2236,0.226,0.2271,0.2368,0.2338,0.2349,0.232,0.2387,0.236,0.237,0.2246,0.2245,0.2245,0.2244,0,0,0.1961,0.1979,0.1981,0.1989,0.2019,0.203,0.2069,0.2105,0.2137,0.2167,0.2214,0.2286,0.2308,0.2336,0.2364,0.2425,0.2495,0.2428,0.243,0.2396,0.2578,0.2485,0.2486,0.2531,0.2534,0.2536,0.2511,0,0.1963,0.1975,0.1989,0.201,0.2019,0.2051,0.2087,0.2127,0.2163,0.2213,0.2271,0.2326,0.2335,0.237,0.2435,0.2492,0.2531,0.2497,0.2532,0.2532,0.2432,0.2499,0.2301,0.2258,0.252,0.2522,0.2523,0,0.1959,0.1968,0.1982,0.2015,0.2025,0.2047,0.2108,0.2142,0.2224,0.2255,0.2324,0.2364,0.2458,0.2461,0.2567,0.2548,0.2573,0.2604,0.2603,0.2522,0.246,0.2247,0.2266,0.2539,0.2538,0.2537,0.2536,0,0.1938,0.1964,0.1973,0.1983,0.2026,0.205,0.2083,0.2156,0.2196,0.229,0.2334,0.2425,0.2482,0.2551,0.2603,0.26,0.2706,0.2694,0.2619,0.2608,0.245,0.2422,0.2778,0.2778,0.2778,0.2778,0.2778,0,0.1927,0.1935,0.1964,0.1968,0.1997,0.2037,0.2085,0.2136,0.222,0.2277,0.2357,0.2418,0.2524,0.2586,0.262,0.2637,0.2707,0.2639,0.262,0.2448,0.2421,0.2685,0.2675,0.2777,0.2777,0.2777,0.2777,0,0.19,0.1915,0.1929,0.197,0.1984,0.2007,0.2075,0.2114,0.2199,0.2281,0.2316,0.2432,0.2509,0.2571,0.2672,0.2643,0.2676,0.2662,0.2414,0.2367,0.2521,0.2513,0.2563,0.256,0.2558,0.2556,0.2554,0,0.1884,0.1886,0.192,0.1928,0.1946,0.1984,0.2013,0.2094,0.2139,0.2279,0.2317,0.2424,0.2479,0.2548,0.2537,0.2536,0.2627,0.2332,0.2305,0.2535,0.2511,0.2507,0.2502,0.2077,0.2071,0.2067,0.2063,0,0.1858,0.1872,0.1881,0.1896,0.1919,0.1941,0.1991,0.2021,0.2126,0.2189,0.2277,0.2334,0.2404,0.2319,0.2315,0.2292,0.2314,0.2238,0.2577,0.2169,0.2077,0.2053,0.2064,0.2023,0.2027,0.203,0.2032,0.2034,0.1841,0.1838,0.1849,0.1855,0.1876,0.1886,0.1877,0.1933,0.1977,0.2041,0.2157,0.2163,0.218,0.2078,0.2005,0.1934,0.2102,0.1997,0.2011,0.203,0.1985,0.1896,0.1794,0.1797,0.1799,0.1801,0.1803,0,0.1804,0.18,0.1806,0.1798,0.1782,0.1821,0.1844,0.1815,0.1814,0.1895,0.1937,0.1788,0.1719,0.1739,0.1571,0.1546,0.1535,0.1475,0.1451,0.1492,0.1529,0.1459,0.1128,0.1126,0.1124,0.1122,0,0,0.1785,0.1761,0.175,0.1695,0.169,0.1638,0.1629,0.1601,0.1619,0.1589,0.1567,0.1683,0.1716,0.1424,0.1362,0.1222,0.1354,0.1168,0.1713,0.173,0.1764,0.1833,0.1773,0,0,0,0,0]},{"header":{"parameterUnit":"m.s-1","parameterCategory":2,"la1":30.2991,"la2":30.254,"lo1":-89.0895,"lo2":-89.0444,"dy":0.0017,"dx":0.0017,"nx":28,"ny":28,"refTime":"2024-05-27T03:00:00:Z","depth":"2","parameterNumber":3,"parameterNumberName":"V-component_of_CURRENTS"},"data":[0,0,0,0,0,0,0,0,0,0,0,0,0,0,0,0,0,0,0,0,0,0,0,0,0,0,0,0,0,0,0,0,0,0,0,0,0,0,0,0,0,0,0,0,0,0,0,0,0,0,0,0,0,0,0,0,0,0,0.0176,0.0175,0,0.0137,0.0137,0.0136,0.0106,0.0106,0.0106,0.0106,0.0036,0.0035,0.0033,0,0,0,0,0,0,0,0,0,0,0,0,0,0.0183,0.0183,0.0176,0.0175,0.0175,0.0138,0.0137,0.0136,0.0106,0.0106,0.0106,0.0106,0.0037,0.0035,0.0033,0,0,0,0,0,0,0,0,0,0,0,0,0,0.0165,0.0183,0.0176,0.0156,0.0154,0.0138,0.0137,0.0136,0.0106,0.0106,0.0106,0.0105,0.0037,0.0035,0.0032,0.0022,0,0,0.0025,0.0024,0,0,0,0,0,0,0,0,0.0166,0.0164,0.016,0.0158,0.0156,0.0127,0.0114,0.0097,0.0106,0.0123,0.0106,0.0105,0.0065,0.006,0.0052,0.0019,0.0016,0.0025,0.0023,0.0022,0.0021,0,0,0,0,0,0,0,0.0167,0.0166,0.0159,0.0159,0.0157,0.0136,0.0134,0.011,0.0094,0.0122,0.012,0.0118,0.0063,0.0055,0.005,0.0015,0.0025,0.0022,0.0021,0.002,-0.0032,-0.0032,0,0,0,0,0,0,0.0177,0.0167,0.016,0.0158,0.0162,0.0137,0.0133,0.0136,0.0095,0.0089,0.0118,0.0116,0.0059,0.0053,0.0048,0.0047,0.0022,0.002,0.0018,-0.0032,-0.0032,-0.0032,0,0,0,0,0,0,0.0177,0.0177,0.0162,0.0162,0.0159,0.0137,0.014,0.0135,0.0129,0.0093,0.0086,0.0117,0.0059,0.0051,0.0033,0.0043,0.0018,0.0016,-0.0032,-0.0032,-0.0032,0.0036,0,0,0,0,0,0,0.0178,0.0178,0.0182,0.0163,0.016,0.0159,0.014,0.0135,0.0129,0.0126,0.009,0.0083,0.0058,0.0037,0.0031,0.0039,0.0014,-0.0033,-0.0032,-0.0032,0.0034,0.0039,0.0043,0,0,0,0,0,0.0178,0.0187,0.0183,0.0182,0.0167,0.0159,0.0156,0.0137,0.0129,0.013,0.0106,0.0084,0.0034,0.0035,0.0028,0.0036,-0.0033,-0.0032,-0.0032,0.0032,0.0038,0.0043,0,0,0,0,0,0,0.019,0.0185,0.0179,0.0185,0.0176,0.0155,0.0155,0.0143,0.0125,0.0123,0.0088,0.0079,0.0066,0.004,0.0043,0.002,-0.0004,-0.0005,0.0047,0.0053,0.0057,0.0078,0.0012,0,0,0,0,0,0.0197,0.0204,0.0192,0.0197,0.0196,0.0177,0.0171,0.0161,0.0143,0.0135,0.011,0.0082,0.006,0.0049,0.0023,0.0014,0.0002,0.0012,0.0017,0.0021,0.0032,0.0025,0.0031,-0.0031,-0.0031,-0.0031,0,0,0.0202,0.0201,0.0204,0.0201,0.0192,0.0197,0.0173,0.0171,0.0175,0.013,0.0126,0.0097,0.0061,0.005,0.0041,0.0031,0.0032,0.0021,0.0025,0.0034,0.0026,0.0032,0.0038,-0.0031,-0.0031,-0.0031,0,0,0.0219,0.0217,0.023,0.0227,0.0222,0.0213,0.0217,0.02,0.0193,0.0186,0.0155,0.0138,0.0101,0.0083,0.0068,0.0082,0.0056,0.0067,0.0109,0.0103,0.0109,0.0113,0.0111,0.0115,0.007,0.0071,0.0071,0,0.0224,0.0241,0.0231,0.0242,0.0247,0.0226,0.0241,0.0232,0.0211,0.0212,0.0193,0.0153,0.0121,0.0116,0.0117,0.0095,0.0086,0.0095,0.0111,0.0116,0.0119,0.0116,0.0119,0.0074,0.0073,0.0073,0.0073,0,0.0251,0.0265,0.0272,0.0284,0.0287,0.0296,0.0288,0.0288,0.0277,0.0266,0.0258,0.0218,0.0197,0.018,0.0152,0.016,0.0144,0.0119,0.0104,0.013,0.0124,0.0127,0.0079,0.0077,0.0076,0.0076,0,0,0.0265,0.0287,0.0291,0.031,0.0313,0.0321,0.0333,0.034,0.0357,0.033,0.0347,0.0305,0.0284,0.0266,0.0229,0.022,0.0234,0.0185,0.0183,0.0194,0.0226,0.0206,0.0206,0.0213,0.0214,0.0214,0.0214,0,0.029,0.0328,0.0331,0.0369,0.0389,0.0382,0.04,0.0403,0.0397,0.0406,0.0372,0.0368,0.0317,0.0311,0.0295,0.0247,0.0243,0.0237,0.0188,0.0187,0.0175,0.0209,0.0218,0.0217,0.0216,0.0217,0.0217,0,0.0319,0.0343,0.0387,0.0425,0.0434,0.0454,0.0487,0.0499,0.0501,0.0496,0.0485,0.0454,0.0437,0.039,0.0341,0.0339,0.0293,0.0256,0.0254,0.0215,0.0172,0.0188,0.0222,0.0221,0.0221,0.022,0.022,0,0.0345,0.0385,0.0427,0.0438,0.0472,0.0496,0.0516,0.0529,0.0554,0.0557,0.0575,0.0537,0.053,0.047,0.0385,0.0367,0.0331,0.0295,0.0238,0.0236,0.0224,0.022,0.0272,0.0272,0.0272,0.0272,0.0272,0,0.0377,0.0409,0.0446,0.0469,0.0529,0.0537,0.0595,0.0604,0.0631,0.0679,0.0627,0.0654,0.0549,0.0509,0.0423,0.0343,0.0362,0.026,0.0239,0.0247,0.0245,0.0226,0.0221,0.0272,0.0272,0.0272,0.0272,0,0.0402,0.0421,0.0474,0.0522,0.0544,0.0588,0.0654,0.0695,0.071,0.0772,0.078,0.0748,0.0698,0.059,0.0494,0.0402,0.032,0.0285,0.0302,0.0283,0.0221,0.0219,0.0232,0.0231,0.0231,0.023,0.023,0,0.0418,0.0448,0.0517,0.0557,0.0584,0.0648,0.0699,0.0734,0.0785,0.0838,0.0878,0.0844,0.0837,0.0681,0.0516,0.0374,0.0338,0.0271,0.0235,0.0241,0.0219,0.0218,0.0216,0.0249,0.0248,0.0248,0.0248,0,0.045,0.0475,0.0521,0.0605,0.0668,0.0742,0.0818,0.0872,0.0927,0.0983,0.1046,0.1044,0.0898,0.075,0.0533,0.0425,0.0291,0.0263,0.0277,0.0252,0.0254,0.0234,0.0232,0.0247,0.0247,0.0247,0.0247,0.0247,0.0476,0.0515,0.0578,0.0659,0.0734,0.0831,0.0902,0.0987,0.1086,0.1172,0.1165,0.1163,0.0978,0.0708,0.0509,0.029,0.0309,0.0218,0.0219,0.0221,0.0217,0.0218,0.0204,0.0203,0.0203,0.0203,0.0203,0,0.0507,0.0554,0.0628,0.0727,0.0812,0.0851,0.0979,0.1053,0.1179,0.1249,0.1298,0.1126,0.0953,0.0733,0.0422,0.0235,0.0211,0.0155,0.0172,0.0176,0.0178,0.0172,0.0146,0.0146,0.0145,0.0144,0,0,0.0525,0.0595,0.0634,0.0774,0.0848,0.0971,0.1049,0.1162,0.1242,0.1318,0.1317,0.1286,0.1032,0.0787,0.053,0.0344,0.0297,0.0295,0.0364,0.0419,0.0423,0.024,0.0238,0,0,0,0,0]}],[{"header":{"parameterUnit":"m.s-1","parameterCategory":2,"la1":30.2991,"la2":30.254,"lo1":-89.0895,"lo2":-89.0444,"dy":0.0017,"dx":0.0017,"nx":28,"ny":28,"refTime":"2024-05-27T03:00:00:Z","depth":"4","parameterNumber":2,"parameterNumberName":"U-component_of_CURRENTS"},"data":[0,0,0,0,0,0,0,0,0,0,0,0,0,0,0,0,0,0,0,0,0,0,0,0,0,0,0,0,0,0,0,0,0,0,0,0,0,0,0,0,0,0,0,0,0,0,0,0,0,0,0,0,0,0,0,0,0,0,0.1358,0.1358,0,0.1376,0.1376,0.1376,0.1402,0.1403,0.1403,0.1404,0.1397,0.1396,0.1395,0,0,0,0,0,0,0,0,0,0,0,0,0,0.1323,0.1324,0.1358,0.1358,0.1358,0.1376,0.1376,0.1376,0.1402,0.1403,0.1403,0.1404,0.1397,0.1396,0.1395,0,0,0,0,0,0,0,0,0,0,0,0,0,0.1338,0.1324,0.1358,0.1375,0.1377,0.1376,0.1376,0.1376,0.1402,0.1403,0.1404,0.1404,0.1397,0.1396,0.1395,0.137,0,0,0.1392,0.1391,0,0,0,0,0,0,0,0,0.1337,0.1339,0.1372,0.1374,0.1376,0.1389,0.1361,0.1373,0.1401,0.139,0.1404,0.1405,0.1392,0.1392,0.1391,0.1369,0.1369,0.1391,0.1391,0.139,0.139,0,0,0,0,0,0,0,0.1336,0.1338,0.1363,0.1372,0.1375,0.1374,0.1377,0.1364,0.1384,0.1391,0.1394,0.1398,0.1393,0.1392,0.1391,0.1369,0.1391,0.139,0.139,0.1389,0.1385,0.1386,0,0,0,0,0,0,0.1338,0.1337,0.1363,0.1364,0.136,0.1374,0.1378,0.1382,0.1385,0.1387,0.1397,0.1399,0.1393,0.1392,0.1391,0.1425,0.139,0.1389,0.1389,0.1384,0.1385,0.1386,0,0,0,0,0,0,0.1337,0.134,0.1362,0.1352,0.1355,0.1374,0.1379,0.1382,0.1412,0.139,0.1391,0.1428,0.1394,0.1392,0.1409,0.1422,0.1389,0.1388,0.1384,0.1385,0.1385,0.1452,0,0,0,0,0,0,0.1336,0.1339,0.1357,0.1352,0.1356,0.1384,0.1379,0.1382,0.1412,0.1416,0.1416,0.1414,0.1395,0.1411,0.1407,0.142,0.1387,0.1383,0.1384,0.1385,0.1449,0.1455,0.146,0,0,0,0,0,0.1334,0.1351,0.1358,0.1362,0.1376,0.1385,0.1388,0.1402,0.1413,0.1431,0.1435,0.1416,0.1415,0.1411,0.1407,0.1419,0.1383,0.1384,0.1385,0.1447,0.1454,0.146,0,0,0,0,0,0,0.1345,0.1355,0.1363,0.1382,0.1395,0.1391,0.1413,0.142,0.1436,0.1448,0.1428,0.1427,0.1444,0.1423,0.1419,0.142,0.1393,0.1394,0.1441,0.1448,0.1453,0.1475,0.1386,0,0,0,0,0,0.1355,0.1374,0.1379,0.1399,0.1409,0.1417,0.1429,0.1439,0.1446,0.1456,0.1455,0.1449,0.144,0.144,0.143,0.1434,0.1439,0.1437,0.1442,0.1447,0.1462,0.1469,0.1478,0.139,0.139,0.139,0,0,0.1364,0.1375,0.1386,0.1404,0.1417,0.1431,0.1428,0.1456,0.1473,0.145,0.1483,0.1474,0.1446,0.1453,0.1457,0.1441,0.1481,0.1449,0.1453,0.1466,0.1472,0.148,0.1488,0.1391,0.1391,0.139,0,0,0.1381,0.1404,0.1422,0.1436,0.1462,0.1464,0.148,0.1494,0.1514,0.1537,0.1521,0.1529,0.152,0.1503,0.149,0.1519,0.1513,0.1512,0.1556,0.1563,0.1571,0.1577,0.1626,0.1637,0.1511,0.1511,0.1511,0,0.1395,0.1412,0.1429,0.1448,0.1463,0.1483,0.1501,0.1519,0.1539,0.1552,0.1561,0.1556,0.1542,0.1535,0.1551,0.1533,0.1552,0.1534,0.1572,0.1578,0.1584,0.1632,0.1643,0.1514,0.1514,0.1514,0.1513,0,0.141,0.1437,0.1451,0.1479,0.1499,0.1522,0.1542,0.1573,0.16,0.1609,0.1633,0.1621,0.1618,0.1608,0.1595,0.1617,0.1626,0.1582,0.1559,0.1597,0.1646,0.1656,0.1519,0.1518,0.1517,0.1516,0,0,0.1402,0.1452,0.146,0.1478,0.1519,0.1531,0.1573,0.1602,0.1631,0.1659,0.1688,0.1685,0.1693,0.168,0.1659,0.1668,0.1739,0.1656,0.1655,0.1715,0.1798,0.1648,0.1645,0.1704,0.1705,0.1706,0.1827,0,0.141,0.1445,0.147,0.1508,0.1524,0.1561,0.1594,0.1628,0.1663,0.1701,0.1705,0.1726,0.1714,0.1723,0.1735,0.173,0.1764,0.1713,0.1744,0.1746,0.1614,0.165,0.171,0.1835,0.1837,0.1839,0.184,0,0.1407,0.1433,0.147,0.1518,0.1531,0.1562,0.1619,0.1651,0.1706,0.1737,0.1769,0.1779,0.1813,0.179,0.1836,0.1809,0.1827,0.1824,0.1827,0.1669,0.1612,0.1779,0.1858,0.1856,0.1855,0.1854,0.1853,0,0.1374,0.1428,0.146,0.1477,0.1536,0.157,0.1609,0.1666,0.1698,0.177,0.1805,0.1839,0.187,0.1889,0.1906,0.1885,0.1952,0.1911,0.1803,0.1796,0.1868,0.1859,0.1956,0.1956,0.1956,0.1955,0.1955,0,0.1351,0.138,0.1455,0.147,0.1513,0.1564,0.1616,0.1663,0.173,0.1763,0.1828,0.185,0.1897,0.1933,0.1941,0.1905,0.1987,0.1828,0.1806,0.1897,0.1889,0.1877,0.1867,0.196,0.1959,0.1958,0.1957,0,0.1303,0.1353,0.1394,0.1471,0.1498,0.1533,0.1617,0.1647,0.1731,0.1781,0.181,0.1887,0.1927,0.1965,0.2001,0.1933,0.1918,0.1889,0.2032,0.2014,0.1764,0.1756,0.1788,0.1784,0.178,0.1777,0.1774,0,0.1276,0.1295,0.1386,0.1413,0.1454,0.1515,0.155,0.1637,0.1667,0.1776,0.1786,0.1868,0.1903,0.1857,0.1897,0.1909,0.1871,0.187,0.1776,0.1767,0.1743,0.1741,0.1737,0.1768,0.1767,0.1766,0.1765,0,0.1223,0.1274,0.1308,0.1365,0.1413,0.1449,0.151,0.1521,0.1615,0.1708,0.1715,0.1721,0.1762,0.1769,0.1789,0.1785,0.1862,0.1829,0.1836,0.1748,0.1742,0.1722,0.1724,0.1752,0.1754,0.1755,0.1756,0,0.119,0.1203,0.1261,0.1295,0.1353,0.1362,0.1403,0.143,0.1467,0.1585,0.1583,0.1665,0.1747,0.1707,0.1721,0.1703,0.1667,0.1595,0.1614,0.1629,0.1509,0.1474,0.1392,0,0,0,0,0,0.1146,0.1148,0.1181,0.1207,0.1259,0.129,0.1362,0.1404,0.1497,0.1462,0.1515,0.1541,0.1539,0.1577,0.1525,0.1648,0.168,0.1577,0.1609,0.1678,0.1694,0.156,0,0,0,0,0,0,0.1115,0.1147,0.115,0.1124,0.1126,0.1165,0.121,0.1274,0.1256,0.1358,0.137,0.1437,0.1468,0.1557,0.1494,0.1505,0.1488,0.1629,0.1624,0.167,0.1683,0.1696,0.1563,0,0,0,0,0]},{"header":{"parameterUnit":"m.s-1","parameterCategory":2,"la1":30.2991,"la2":30.254,"lo1":-89.0895,"lo2":-89.0444,"dy":0.0017,"dx":0.0017,"nx":28,"ny":28,"refTime":"2024-05-27T03:00:00:Z","depth":"4","parameterNumber":3,"parameterNumberName":"V-component_of_CURRENTS"},"data":[0,0,0,0,0,0,0,0,0,0,0,0,0,0,0,0,0,0,0,0,0,0,0,0,0,0,0,0,0,0,0,0,0,0,0,0,0,0,0,0,0,0,0,0,0,0,0,0,0,0,0,0,0,0,0,0,0,0,0.0148,0.0148,0,0.0119,0.0118,0.0118,0.0096,0.0096,0.0095,0.0095,0.0052,0.0052,0.0051,0,0,0,0,0,0,0,0,0,0,0,0,0,0.0155,0.0155,0.0148,0.0148,0.0148,0.0119,0.0118,0.0118,0.0096,0.0096,0.0095,0.0095,0.0053,0.0052,0.005,0,0,0,0,0,0,0,0,0,0,0,0,0,0.0141,0.0155,0.0148,0.0134,0.0132,0.0119,0.0118,0.0118,0.0096,0.0096,0.0095,0.0095,0.0053,0.0052,0.005,0.0045,0,0,0.0046,0.0045,0,0,0,0,0,0,0,0,0.0142,0.014,0.0136,0.0135,0.0133,0.0111,0.0105,0.0093,0.0096,0.0109,0.0095,0.0095,0.0072,0.0069,0.0063,0.0043,0.0041,0.0045,0.0045,0.0044,0.0043,0,0,0,0,0,0,0,0.0143,0.0141,0.0136,0.0136,0.0134,0.0118,0.0116,0.0103,0.0091,0.0108,0.0106,0.0104,0.0071,0.0064,0.0061,0.004,0.0045,0.0044,0.0043,0.0043,0.0042,0.0043,0,0,0,0,0,0,0.015,0.0143,0.0137,0.0135,0.0138,0.0119,0.0116,0.0118,0.0091,0.0087,0.0104,0.0103,0.0067,0.0063,0.006,0.0074,0.0044,0.0042,0.0042,0.0041,0.0042,0.0043,0,0,0,0,0,0,0.015,0.015,0.0138,0.0138,0.0136,0.0119,0.0121,0.0117,0.0115,0.0089,0.0085,0.0106,0.0066,0.0062,0.0055,0.0072,0.0042,0.004,0.004,0.0041,0.0043,0.0089,0,0,0,0,0,0,0.015,0.015,0.0155,0.0139,0.0136,0.0137,0.0121,0.0117,0.0114,0.0112,0.0089,0.0084,0.0066,0.0057,0.0053,0.0069,0.0039,0.0039,0.0041,0.0042,0.0087,0.0092,0.0097,0,0,0,0,0,0.0151,0.0159,0.0156,0.0155,0.0143,0.0137,0.0135,0.0121,0.0114,0.0117,0.0102,0.0085,0.0065,0.0056,0.0051,0.0067,0.0038,0.004,0.0042,0.0084,0.0091,0.0096,0,0,0,0,0,0,0.0162,0.0157,0.0153,0.0159,0.0152,0.0134,0.0136,0.0126,0.0116,0.0115,0.009,0.0085,0.0086,0.0072,0.0062,0.0074,0.0052,0.0053,0.0085,0.0091,0.0096,0.0113,0.0038,0,0,0,0,0,0.0169,0.0175,0.0165,0.017,0.0169,0.0154,0.015,0.0142,0.013,0.0125,0.0108,0.0096,0.0091,0.0086,0.0076,0.0078,0.0066,0.0088,0.0093,0.0097,0.0109,0.0108,0.0114,0.005,0.005,0.005,0,0,0.0174,0.0173,0.0175,0.0173,0.0167,0.0172,0.0151,0.0151,0.0157,0.0122,0.0126,0.011,0.0095,0.0099,0.01,0.0089,0.0107,0.01,0.0104,0.0113,0.0111,0.0117,0.0123,0.0051,0.0051,0.0051,0,0,0.0189,0.0189,0.0199,0.0198,0.0195,0.0188,0.0191,0.0178,0.0176,0.0175,0.0157,0.0157,0.0139,0.0137,0.0134,0.0162,0.0133,0.0156,0.0195,0.0194,0.0199,0.0204,0.0187,0.0189,0.016,0.016,0.016,0,0.0195,0.0209,0.02,0.0211,0.0217,0.02,0.0214,0.0209,0.0195,0.0201,0.0184,0.0179,0.0162,0.0179,0.0188,0.0175,0.016,0.0171,0.0201,0.0205,0.0209,0.019,0.0193,0.0162,0.0162,0.0162,0.0162,0,0.0216,0.023,0.0237,0.0248,0.0253,0.0262,0.0259,0.0262,0.0257,0.0251,0.0262,0.0242,0.0242,0.0237,0.0219,0.0243,0.0219,0.0205,0.0185,0.0218,0.0196,0.0198,0.0166,0.0165,0.0164,0.0164,0,0,0.0226,0.0248,0.0252,0.0271,0.0277,0.0286,0.0302,0.0315,0.0335,0.0319,0.0343,0.0334,0.0321,0.0318,0.0297,0.0297,0.0305,0.0265,0.0263,0.0247,0.0289,0.0254,0.0252,0.0292,0.0293,0.0293,0.0259,0,0.0247,0.0281,0.0286,0.0324,0.0343,0.0342,0.0364,0.0373,0.0375,0.039,0.0377,0.0388,0.0352,0.0357,0.0351,0.0317,0.0313,0.0315,0.0261,0.0259,0.0223,0.0255,0.0296,0.026,0.0261,0.0261,0.0261,0,0.0268,0.0292,0.0333,0.0375,0.0384,0.0406,0.0446,0.0461,0.0474,0.0475,0.0479,0.0461,0.0461,0.0427,0.039,0.0389,0.0349,0.0319,0.0316,0.0272,0.0228,0.0222,0.0263,0.0263,0.0263,0.0263,0.0263,0,0.0286,0.0327,0.0367,0.0379,0.0418,0.0446,0.0469,0.0491,0.0519,0.0533,0.055,0.0533,0.0533,0.0486,0.0415,0.0405,0.0367,0.0343,0.0274,0.027,0.0289,0.0285,0.0327,0.0328,0.0328,0.0328,0.0328,0,0.0308,0.0341,0.0384,0.0406,0.0466,0.0481,0.0542,0.0557,0.059,0.063,0.06,0.0619,0.0549,0.0512,0.0441,0.036,0.0385,0.029,0.0267,0.0307,0.0306,0.0289,0.0285,0.0326,0.0327,0.0327,0.0327,0,0.0322,0.0346,0.0398,0.0453,0.0478,0.0522,0.0593,0.0633,0.0654,0.0706,0.0715,0.069,0.0637,0.0554,0.0474,0.0396,0.0321,0.0286,0.0332,0.031,0.0214,0.0213,0.0208,0.0207,0.0206,0.0205,0.0204,0,0.0331,0.0359,0.0434,0.0473,0.0504,0.0571,0.0621,0.0664,0.0706,0.0748,0.0773,0.074,0.0707,0.0567,0.0471,0.033,0.0304,0.0253,0.024,0.0229,0.0206,0.0207,0.0207,0.0202,0.0202,0.0201,0.0201,0,0.0349,0.0378,0.0422,0.0503,0.0565,0.0637,0.0708,0.0743,0.0793,0.0815,0.0819,0.0749,0.0684,0.0563,0.0453,0.0352,0.028,0.0241,0.0242,0.0229,0.0221,0.02,0.0202,0.0197,0.0198,0.0198,0.0198,0,0.0364,0.0397,0.0457,0.0529,0.0607,0.0681,0.072,0.077,0.0812,0.0849,0.0848,0.0779,0.074,0.0576,0.0478,0.0369,0.0334,0.0282,0.028,0.0283,0.0307,0.0308,0.0302,0,0,0,0,0,0.0374,0.0411,0.0477,0.0558,0.0636,0.0684,0.0769,0.08,0.0849,0.0853,0.0851,0.0788,0.0639,0.058,0.0466,0.0446,0.031,0.0305,0.0248,0.0175,0.018,0.0191,0,0,0,0,0,0,0.0379,0.0438,0.0473,0.0568,0.0624,0.0715,0.077,0.0805,0.0806,0.0832,0.0758,0.0733,0.0593,0.0701,0.0454,0.0424,0.0365,0.0244,0.0241,0.0173,0.0177,0.018,0.0193,0,0,0,0,0]}]]